Aurora, CO

12:39 PM MDT on April 22, 2018 (GMT -0600)
Buckley Air Force Base

Weather History for KBKF - January, 2013

Change the Weather History Date:

Wednesday, January 9, 2013

  Actual Average Record
Temperature  
Mean Temperature 44 °F -  
Max Temperature 59 °F 42 °F 66 °F (2018)
Min Temperature 30 °F 20 °F 6 °F (1998)
Degree Days  
Heating Degree Days 20    
Moisture  
Dew Point 16 °F    
Average Humidity 38    
Maximum Humidity 55    
Minimum Humidity 17    
Precipitation  
Precipitation 0.00 in - - ()
Sea Level Pressure  
Sea Level Pressure 30.14 in    
Wind  
Wind Speed 13 mph (South)    
Max Wind Speed 28 mph    
Max Gust Speed 34 mph    
Averages and records for this station are not official NWS values.
T = Trace of Precipitation, MM = Missing Value Source: NWS Daily Summary

Daily Weather History Graph

Daily Weather History Graph

Search for Another Location

Airport or City:

Astronomy

Jan. 09, 2013 Rise Set
Actual Time 7:19 AM MST 4:53 PM MST
Civil Twilight 6:49 AM MST 5:23 PM MST
Nautical Twilight 6:16 AM MST 5:56 PM MST
Astronomical Twilight 5:43 AM MST 6:29 PM MST
Moon 5:01 AM MST (1/9) 2:57 PM MST (1/9)
Length of Visible Light 10h 33m
Length of Day
9h 33m
Waning Crescent, 6% of the Moon is Illuminated
Jan 9
Waning Crescent
Jan 11
New
Jan 18
First Quarter
Jan 26
Full
Feb 3
Last Quarter

Hourly Weather History & Observations

Time (MST) Temp. Windchill Dew Point Humidity Pressure Visibility Wind Dir Wind Speed Gust Speed Precip Events Conditions
12:55 AM 32.0 °F 24.2 °F 15.8 °F 51% 30.17 in 25.0 mi SSW 9.2 mph - N/A   Partly Cloudy
1:55 AM 30.2 °F 22.6 °F 15.8 °F 55% 30.19 in 25.0 mi SSW 8.1 mph - N/A   Partly Cloudy
2:55 AM 30.2 °F 22.6 °F 15.8 °F 55% 30.20 in 25.0 mi South 8.1 mph - N/A   Partly Cloudy
3:55 AM 32.0 °F 24.8 °F 15.8 °F 51% 30.21 in 25.0 mi SSW 8.1 mph - N/A   Partly Cloudy
4:55 AM 32.0 °F 24.2 °F 12.2 °F 44% 30.23 in 25.0 mi South 9.2 mph - N/A   Partly Cloudy
5:55 AM 30.2 °F 21.3 °F 12.2 °F 47% 30.25 in 25.0 mi South 10.4 mph - N/A   Partly Cloudy
6:55 AM 32.0 °F 22.1 °F 14.0 °F 48% 30.27 in 70.0 mi South 13.8 mph - N/A   Partly Cloudy
7:55 AM 32.0 °F 20.8 °F 15.8 °F 51% 30.32 in 70.0 mi South 17.3 mph - N/A   Scattered Clouds
8:55 AM 37.4 °F 26.4 °F 17.6 °F 45% 30.28 in 70.0 mi South 23.0 mph 29.9 mph N/A   Scattered Clouds
9:55 AM 42.8 °F 33.5 °F 19.4 °F 39% 30.28 in 70.0 mi South 23.0 mph 28.8 mph N/A   Scattered Clouds
10:55 AM 46.4 °F 39.0 °F 17.6 °F 32% 30.25 in 70.0 mi South 19.6 mph - N/A   Mostly Cloudy
11:55 AM 51.8 °F - 15.8 °F 24% 30.17 in 70.0 mi South 16.1 mph - N/A   Scattered Clouds
12:55 PM 55.4 °F - 15.8 °F 21% 30.12 in 70.0 mi South 9.2 mph - N/A   Scattered Clouds
1:55 PM 59.0 °F - 14.0 °F 17% 30.07 in 70.0 mi SSW 9.2 mph - N/A   Partly Cloudy
2:55 PM 55.4 °F - 14.0 °F 20% 30.08 in 70.0 mi South 17.3 mph - N/A   Partly Cloudy
3:55 PM 53.6 °F - 17.6 °F 24% 30.07 in 70.0 mi South 18.4 mph - N/A   Partly Cloudy
4:55 PM 46.4 °F 39.2 °F 17.6 °F 32% 30.07 in 25.0 mi South 18.4 mph - N/A   Partly Cloudy
5:55 PM 42.8 °F 35.4 °F 15.8 °F 34% 30.08 in 25.0 mi SSW 15.0 mph - N/A   Partly Cloudy
6:55 PM 39.2 °F 30.8 °F 15.8 °F 39% 30.10 in 25.0 mi South 15.0 mph - N/A   Partly Cloudy
7:55 PM 39.2 °F 32.5 °F 15.8 °F 39% 30.09 in 25.0 mi South 10.4 mph 26.5 mph N/A   Partly Cloudy
8:55 PM 41.0 °F 32.2 °F 14.0 °F 33% 30.02 in 25.0 mi South 18.4 mph 26.5 mph N/A   Partly Cloudy
9:55 PM 39.2 °F 28.7 °F 15.8 °F 39% 29.99 in 25.0 mi South 23.0 mph 29.9 mph N/A   Partly Cloudy
10:55 PM 39.2 °F 28.5 °F 15.8 °F 39% 29.95 in 25.0 mi South 24.2 mph - N/A   Partly Cloudy
11:55 PM 41.0 °F 30.2 °F 15.8 °F 36% 29.90 in 25.0 mi South 27.6 mph 34.5 mph N/A   Clear